• In Hungary
  • List of Countries
  • For 7 days
  • Water Temperature
  • Satellite Maps
  • Weather Map
  • News
  • Weather Widgets
  • user-avatar
    Login

    Hourly Weather Staraya Gusevica

    Today, 18 November, Saturday

    Time Temperature Precipitation Wind Pressure Humidity
    00:00 -1°C° 0 mm 2 mps 753 mmHg 88%
    01:00 -1°C° 0 mm 2 mps 753 mmHg 88%
    02:00 0°C° 0 mm 1 mps 753 mmHg 91%
    03:00 +1°C° 0 mm 1 mps 753 mmHg 90%
    04:00 +1°C° 0 mm 1 mps 753 mmHg 89%
    05:00 +1°C° 0 mm 1 mps 752 mmHg 88%
    06:00 +1°C° 0 mm 1 mps 752 mmHg 88%
    07:00 +1°C° 0 mm 1 mps 752 mmHg 88%
    08:00 +1°C° 0 mm 1 mps 752 mmHg 87%
    09:00 +2°C° 0 mm 1 mps 752 mmHg 83%
    10:00 +3°C° 0 mm 1 mps 752 mmHg 80%
    11:00 +3°C° 0 mm 1 mps 752 mmHg 76%
    12:00 +3°C° 0 mm 2 mps 751 mmHg 76%
    13:00 +3°C° 0 mm 2 mps 751 mmHg 75%
    14:00 +3°C° 0 mm 2 mps 751 mmHg 74%
    15:00 +3°C° 0.1 mm 2 mps 750 mmHg 78%
    16:00 +2°C° 0.1 mm 2 mps 750 mmHg 82%
    17:00 +1°C° 0.1 mm 2 mps 749 mmHg 85%
    18:00 +1°C° 0.3 mm 2 mps 749 mmHg 87%
    19:00 +1°C° 0.3 mm 2 mps 748 mmHg 88%
    20:00 +1°C° 0.3 mm 2 mps 748 mmHg 89%
    21:00 +1°C° 0.5 mm 2 mps 748 mmHg 91%
    22:00 +1°C° 0.5 mm 2 mps 747 mmHg 92%
    23:00 +2°C° 0.5 mm 1 mps 747 mmHg 93%

    Tomorrow, 19 November, Sunday

    Time Temperature Precipitation Wind Pressure Humidity
    00:00 +2°C° 0.2 mm 1 mps 746 mmHg 94%
    01:00 +2°C° 0.2 mm 1 mps 746 mmHg 95%
    02:00 +2°C° 0.2 mm 1 mps 746 mmHg 96%
    03:00 +2°C° 0.1 mm 1 mps 745 mmHg 96%
    04:00 +2°C° 0.1 mm 1 mps 745 mmHg 96%
    05:00 +2°C° 0.1 mm 1 mps 744 mmHg 96%
    06:00 +1°C° 0.1 mm 2 mps 744 mmHg 96%
    07:00 +1°C° 0.1 mm 2 mps 744 mmHg 96%
    08:00 +1°C° 0.1 mm 2 mps 744 mmHg 96%
    09:00 +1°C° 0 mm 2 mps 743 mmHg 94%
    10:00 +1°C° 0 mm 3 mps 743 mmHg 92%
    11:00 +1°C° 0 mm 3 mps 743 mmHg 90%
    12:00 +1°C° 0 mm 3 mps 743 mmHg 87%
    13:00 +1°C° 0 mm 3 mps 743 mmHg 85%
    14:00 +2°C° 0 mm 3 mps 743 mmHg 83%
    15:00 +1°C° 0 mm 3 mps 743 mmHg 85%
    16:00 0°C° 0 mm 3 mps 743 mmHg 88%
    17:00 -1°C° 0 mm 3 mps 743 mmHg 90%
    18:00 -1°C° 0 mm 3 mps 743 mmHg 91%
    19:00 -1°C° 0 mm 3 mps 744 mmHg 92%
    20:00 -1°C° 0 mm 3 mps 744 mmHg 93%
    21:00 -1°C° 0 mm 3 mps 744 mmHg 93%
    22:00 -2°C° 0 mm 3 mps 744 mmHg 92%
    23:00 -2°C° 0 mm 3 mps 744 mmHg 92%

    Day after tomorrow, 20 November, Monday

    Time Temperature Precipitation Wind Pressure Humidity
    00:00 -2°C° 0 mm 2 mps 745 mmHg 92%
    01:00 -2°C° 0 mm 2 mps 745 mmHg 92%
    02:00 -2°C° 0 mm 2 mps 745 mmHg 92%
    03:00 -2°C° 0 mm 2 mps 745 mmHg 92%
    04:00 -2°C° 0 mm 2 mps 745 mmHg 92%
    05:00 -2°C° 0 mm 2 mps 745 mmHg 92%
    06:00 -2°C° 0 mm 2 mps 745 mmHg 92%
    07:00 -2°C° 0 mm 2 mps 745 mmHg 91%
    08:00 -2°C° 0 mm 2 mps 745 mmHg 91%
    09:00 -1°C° 0 mm 2 mps 746 mmHg 88%
    10:00 +1°C° 0 mm 2 mps 746 mmHg 85%
    11:00 +2°C° 0 mm 2 mps 746 mmHg 82%
    12:00 +2°C° 0 mm 2 mps 746 mmHg 82%
    13:00 +2°C° 0 mm 2 mps 745 mmHg 83%
    14:00 +2°C° 0 mm 2 mps 745 mmHg 83%
    15:00 +1°C° 0 mm 2 mps 745 mmHg 86%
    16:00 -1°C° 0 mm 2 mps 745 mmHg 89%
    17:00 -1°C° 0 mm 2 mps 745 mmHg 92%
    18:00 -2°C° 0 mm 2 mps 745 mmHg 92%
    19:00 0°C° 0 mm 1 mps 745 mmHg 91%
    20:00 0°C° 0 mm 1 mps 745 mmHg 91%
    21:00 0°C° 0 mm 1 mps 745 mmHg 91%
    22:00 0°C° 0 mm 1 mps 745 mmHg 91%
    23:00 0°C° 0 mm 0 mps 745 mmHg 91%

    21 November, Tuesday

    Time Temperature Precipitation Wind Pressure Humidity
    00:00 -1°C° 0 mm 0 mps 744 mmHg 91%
    01:00 -1°C° 0 mm 0 mps 744 mmHg 91%
    02:00 -1°C° 0 mm 0 mps 744 mmHg 92%
    03:00 -1°C° 0 mm 0 mps 744 mmHg 92%
    04:00 -1°C° 0 mm 0 mps 744 mmHg 92%
    05:00 -1°C° 0 mm 0 mps 744 mmHg 92%
    06:00 -1°C° 0 mm 0 mps 744 mmHg 92%
    07:00 0°C° 0 mm 0 mps 744 mmHg 93%
    08:00 0°C° 0 mm 0 mps 744 mmHg 93%
    09:00 0°C° 0 mm 0 mps 744 mmHg 90%
    10:00 +1°C° 0 mm 0 mps 744 mmHg 87%
    11:00 +2°C° 0 mm 1 mps 744 mmHg 85%
    12:00 +3°C° 0 mm 1 mps 744 mmHg 84%
    13:00 +3°C° 0 mm 1 mps 743 mmHg 83%
    14:00 +3°C° 0 mm 1 mps 743 mmHg 83%
    15:00 +3°C° 0.1 mm 1 mps 743 mmHg 85%
    16:00 +2°C° 0.1 mm 1 mps 743 mmHg 87%
    17:00 +1°C° 0.1 mm 1 mps 743 mmHg 88%
    18:00 +1°C° 0 mm 1 mps 744 mmHg 89%
    19:00 0°C° 0 mm 1 mps 744 mmHg 90%
    20:00 -2°C° 0 mm 2 mps 744 mmHg 91%
    21:00 -2°C° 0 mm 2 mps 744 mmHg 91%
    22:00 -3°C° 0 mm 2 mps 744 mmHg 92%
    23:00 -3°C° 0 mm 2 mps 745 mmHg 93%

    22 November, Wednesday

    Time Temperature Precipitation Wind Pressure Humidity
    00:00 -3°C° 0 mm 2 mps 745 mmHg 93%
    01:00 -3°C° 0 mm 2 mps 745 mmHg 94%
    02:00 -3°C° 0 mm 2 mps 745 mmHg 94%
    03:00 -3°C° 0 mm 2 mps 746 mmHg 94%
    04:00 -4°C° 0 mm 2 mps 746 mmHg 95%
    05:00 -4°C° 0 mm 2 mps 746 mmHg 95%
    06:00 -4°C° 0 mm 2 mps 747 mmHg 95%
    07:00 -4°C° 0 mm 2 mps 747 mmHg 95%
    08:00 -4°C° 0 mm 2 mps 748 mmHg 95%
    09:00 -3°C° 0 mm 2 mps 748 mmHg 92%
    10:00 -2°C° 0 mm 3 mps 748 mmHg 88%
    11:00 -1°C° 0 mm 3 mps 749 mmHg 85%
    12:00 -1°C° 0 mm 3 mps 749 mmHg 84%
    13:00 0°C° 0 mm 3 mps 749 mmHg 82%
    14:00 0°C° 0 mm 3 mps 749 mmHg 81%
    15:00 -1°C° 0 mm 3 mps 750 mmHg 85%
    16:00 -2°C° 0 mm 2 mps 750 mmHg 88%
    17:00 -2°C° 0 mm 2 mps 750 mmHg 91%
    18:00 -3°C° 0 mm 2 mps 750 mmHg 92%
    19:00 -3°C° 0 mm 2 mps 751 mmHg 92%
    20:00 -3°C° 0 mm 2 mps 751 mmHg 92%
    21:00 -3°C° 0 mm 2 mps 751 mmHg 91%
    22:00 -3°C° 0 mm 2 mps 751 mmHg 90%
    23:00 -4°C° 0 mm 2 mps 752 mmHg 89%

    23 November, Thursday

    Time Temperature Precipitation Wind Pressure Humidity
    00:00 -3°C° 0 mm 2 mps 752 mmHg 88%
    01:00 -3°C° 0 mm 2 mps 752 mmHg 87%
    02:00 -3°C° 0 mm 2 mps 752 mmHg 85%
    03:00 -4°C° 0 mm 3 mps 752 mmHg 84%
    04:00 -4°C° 0 mm 3 mps 751 mmHg 83%
    05:00 -2°C° 0 mm 3 mps 751 mmHg 82%
    06:00 -3°C° 0.2 mm 4 mps 751 mmHg 84%
    07:00 -3°C° 0.2 mm 4 mps 751 mmHg 85%
    08:00 -4°C° 0.2 mm 5 mps 751 mmHg 87%
    09:00 -2°C° 0.4 mm 5 mps 751 mmHg 88%
    10:00 -2°C° 0.4 mm 5 mps 751 mmHg 89%
    11:00 -2°C° 0.4 mm 5 mps 750 mmHg 90%
    12:00 -1°C° 0.1 mm 4 mps 750 mmHg 91%
    13:00 -1°C° 0.1 mm 4 mps 750 mmHg 92%
    14:00 0°C° 0.1 mm 4 mps 750 mmHg 94%
    15:00 0°C° 0.1 mm 4 mps 750 mmHg 95%
    16:00 0°C° 0.1 mm 4 mps 750 mmHg 96%
    17:00 +2°C° 0.1 mm 3 mps 750 mmHg 97%
    18:00 +2°C° 0.1 mm 3 mps 750 mmHg 97%
    19:00 +2°C° 0.1 mm 3 mps 751 mmHg 97%
    20:00 +2°C° 0.1 mm 3 mps 751 mmHg 98%
    21:00 +2°C° 0 mm 3 mps 751 mmHg 98%
    22:00 +2°C° 0 mm 3 mps 751 mmHg 98%
    23:00 +2°C° 0 mm 3 mps 751 mmHg 98%
    Show more